Location: Overspoor
(51.4747°N, 5.6641°E)
Time: 07:44:53
(UTC+02:00)

YUBILEINY - Pass Details

Date: 01 July 2022
Orbit: 1478 x 1509 km, 82.5° (Epoch: 17 August)

Event Time Altitude Azimuth Distance (km) Brightness Sun altitude
Rises 03:55:38 0° 348° (NNW) 4,659 ? -9.8°
Reaches altitude 10° 03:59:13 10° 360° (N) 3,671 ? -9.5°
Maximum altitude 04:06:29 27° 56° (NE) 2,557 ? -8.9°
Drops below altitude 10° 04:13:39 10° 111° (ESE) 3,639 ? -8.3°
Sets 04:17:09 0° 123° (ESE) 4,610 ? -7.9°
